DELTA 1 DEB, 2706

Orbit data source: Space-Track

DELTA 1 DEB, 2706 is space debris in SSO originally from a launch on Thu, 26 Jan 1967 UTC launched from the Air Force Western Test Range (AFWTR). Debris objects in space refer to the collection of defunct objects orbiting the Earth. Examples of debris include non-operational satellites, rocket bodies, and fragments generated from explosions, collisions, or faulty payload assembly.

Loading next visibility...
DELTA 1 DEB details
Identifier
2706, 1967-006C
Orbit
SSO
Last TLE update5 days ago
Origin
Flag of USGSFC (US)
ManufacturerUnknown
MissionSpacecraft
Bus & MotorUnknown
MassUnknown
Launch date (UTC)
1967-01-26 (58 years ago)
Launch vehicleUnknown
Launch site
Air Force Western Test Range (AFWTR)
Object type
Payload
Rocket body
Debris
Shape & HBRUnknown
Radar Cross SectionSmall (<0.1 m²)

Expand to show TLE details & history

TLE from 5 days ago
0 DELTA 1 DEB
1 02706U 67006C   24351.97609458 -.00000019  00000-0  16866-3 0  9998
2 02706 102.2218 357.9998 0035489  26.1902  31.8499 12.60910458663580
Epoch: 2024-12-16T23:25Z
Definitive object data (Epoch: 2024-12-16T23:25:34.571Z)
Latitude56.31009°
Longitude-98.34836°
Altitude1,404.889 km
Speed7.174 km/s
True Right ascension22h 36m 32s
True Declination56° 09' 52"
Sunlit
Object was in daylight at TLE epoch
Visualization TLE readout
Latitude51.8795°
Longitude121.35542°
Altitude1,436.4 km
Speed7.144 km/s
Apparent Right ascension08h 06m 47s
Apparent Declination40° 20' 42"
Sunlit
Object is in daylight
Visualization observer readout
Local Sidereal Time15:10:25
Azimuth310.705° NW
Elevation14.785°
Doppler factor1
Orbital elements
Apogee altitude1,444.413 km
Perigee altitude1,389.086 km
Semi-major axis7,794.887 km
Eccentricity0.0035489
Inclination102.2218°
RAAN357.9998°
Arg. of periapsis26.1902°
True anomaly32.06531°
Mean anomaly31.8499°
Eccentric anomaly31.95752°
Mean motion3.15376 °/min
BSTAR0.00016866
Orbital period114.15 mins
Loading maneuver chart data...
Loading historical data...
Loading historical data...
Loading historical data...
Loading historical data...
Loading historical data...
Loading historical data...
Loading historical data...
Other satellites on launch #6 in the year 1967 (1967-01-26 UTC)

DELTA 1 DEB Visibility forecast

Observer location: undefined°, undefined

Span
Click to sort rows by Start time (UTC) header in descending order
Start Az.
Max El. time (UTC)
Max El. Az.
Max El.
End time (UTC)
End Az.
12 mins2024-12-21 23:14:00.561Z116.557° SE2024-12-21 23:20:00.561Z54.523° ENE30.9°2024-12-21 23:26:00.561Z359.826° N
14 mins2024-12-22 01:05:00.561Z187.273° SSW2024-12-22 01:11:00.561Z246.953° WSW37.14°2024-12-22 01:19:00.561Z331.113° NNW
14 mins2024-12-22 13:03:00.561Z31.715° NE2024-12-22 13:09:00.561Z92.489° ESE38.105°2024-12-22 13:17:00.561Z176.933° S
13 mins2024-12-22 14:55:00.561Z359.037° N2024-12-22 15:01:00.561Z303.502° NW30.713°2024-12-22 15:08:00.561Z240.088° WSW
|